This is the latest recevied weather packets stored in our database for station/object F4EEX. If no packets are shown the sender has not sent any weather packets the latest 1 day(s).
| Time | Temp. | Humidity | Pressure | Rain* | Wind** | Luminosity | Snow |
|---|---|---|---|---|---|---|---|
| 1778031464 | 12.78° C | 92% | 1006.5 hPa | 1.27 mm | - | - | - |
| 1778031164 | 12.78° C | 92% | 1006.5 hPa | 1.78 mm | - | - | - |
| 1778030864 | 12.78° C | 93% | 1006.4 hPa | 2.29 mm | - | - | - |
| 1778030564 | 12.78° C | 92% | 1006.1 hPa | 2.79 mm | - | - | - |
| 1778030264 | 12.78° C | 93% | 1006.1 hPa | 3.56 mm | - | - | - |
| 1778029964 | 12.78° C | 93% | 1006 hPa | 4.06 mm | - | - | - |
| 1778029664 | 12.78° C | 92% | 1005.9 hPa | 4.83 mm | - | - | - |
| 1778029364 | 12.78° C | 92% | 1006 hPa | 5.59 mm | - | - | - |
| 1778029064 | 13.33° C | 92% | 1006 hPa | 5.59 mm | - | - | - |
| 1778028764 | 12.78° C | 92% | 1006.3 hPa | 6.1 mm | - | - | - |
| 1778028464 | 13.33° C | 92% | 1006.6 hPa | 5.84 mm | - | - | - |
| 1778028164 | 13.33° C | 92% | 1007.3 hPa | 6.35 mm | - | - | - |
| 1778027864 | 13.33° C | 92% | 1007.6 hPa | 7.37 mm | - | - | - |
| 1778027564 | 13.33° C | 92% | 1007.8 hPa | 7.11 mm | - | - | - |
| 1778027264 | 13.33° C | 91% | 1007.7 hPa | 6.86 mm | - | - | - |
| 1778026964 | 13.33° C | 91% | 1008 hPa | 6.6 mm | - | - | - |
| 1778026664 | 13.33° C | 91% | 1008.5 hPa | 6.1 mm | - | - | - |
| 1778026364 | 13.33° C | 91% | 1008.6 hPa | 6.1 mm | - | - | - |
| 1778026064 | 13.33° C | 92% | 1008.6 hPa | 5.59 mm | - | - | - |
| 1778023664 | 14.44° C | 88% | 1007.8 hPa | 5.08 mm | - | - | - |
| 1778023364 | 14.44° C | 87% | 1007.7 hPa | 5.08 mm | - | - | - |
| 1778022464 | 14.44° C | 86% | 1008 hPa | 4.32 mm | - | - | - |
| 1778021864 | 15° C | 85% | 1008.1 hPa | 3.05 mm | - | - | - |
| 1778021564 | 15° C | 85% | 1008.3 hPa | 2.54 mm | - | - | - |
| 1778020664 | 15.56° C | 83% | 1008.3 hPa | 2.03 mm | - | - | - |
* Rain latest hour (hover to see other rain measurements)
** Current wind speed in m/s (hover to see current wind gust speed)